Simultaneous Nadir Overpasses (SNOs) Predictions

Prediction of SNOs between GOES-16 and NPP Satellite Orbit:

Table of predicted SNOs for the next 14.0 days since TLE Epoch: 1/6/2017
Index Date Time (GOES-16) GOES-16 Lat,Lon NPP Lat,Lon Distance(km) Time Diff (sec)
1 01/06/2017 19:20:37 -0.01, -89.47 0.18, -88.58 102.04 80
2 01/08/2017 07:42:24 0.02, -89.47 1.00, -93.84 498.25 80
3 01/09/2017 07:21:00 0.02, -89.48 -0.04, -89.32 19.17 80
4 01/11/2017 19:26:49 -0.02, -89.52 -0.17, -90.08 64.96 80
5 01/12/2017 19:05:25 -0.01, -89.53 0.88, -85.56 452.76 80
6 01/14/2017 07:29:52 0.02, -89.54 0.30, -90.83 146.69 80
7 01/15/2017 07:08:28 0.01, -89.55 -0.75, -86.30 371.24 80
8 01/16/2017 19:33:03 -0.01, -89.59 -0.45, -91.60 229.09 80
9 01/17/2017 19:11:38 -0.01, -89.61 0.54, -87.06 289.36 80
10 01/19/2017 07:36:05 0.02, -89.63 0.64, -92.33 308.74 80




NCC Satellite Simultaneous Nadir Overpasses (SNOs) Prediction Service
